Time,TemperatureF,DewpointF,PressureIn,WindDirection,WindDirectionDegrees,WindSpeedMPH,WindSpeedGustMPH,Humidity,HourlyPrecipIn,Conditions,Clouds,dailyrainin,SoftwareType,DateUTC
2013-10-14 00:01:00,46.6,35.1,30.34,WNW,299,0.0,0.0,64,0.00,,,0.00,vanprod-2.3,2013-10-14 05:01:00,
2013-10-14 00:06:00,46.6,34.7,30.34,WNW,299,0.0,1.0,63,0.00,,,0.00,vanprod-2.3,2013-10-14 05:06:00,
2013-10-14 00:11:00,46.8,34.9,30.34,WNW,299,0.0,0.0,63,0.00,,,0.00,vanprod-2.3,2013-10-14 05:11:00,
2013-10-14 00:16:00,46.8,34.9,30.33,WNW,299,0.0,0.0,63,0.00,,,0.00,vanprod-2.3,2013-10-14 05:16:00,
2013-10-14 00:21:00,46.8,34.5,30.33,WNW,299,0.0,0.0,62,0.00,,,0.00,vanprod-2.3,2013-10-14 05:21:00,
2013-10-14 00:26:00,46.8,34.9,30.33,WNW,299,0.0,0.0,63,0.00,,,0.00,vanprod-2.3,2013-10-14 05:26:00,
2013-10-14 00:31:00,46.9,35.0,30.33,WNW,299,0.0,0.0,63,0.00,,,0.00,vanprod-2.3,2013-10-14 05:31:00,
2013-10-14 00:36:00,46.9,35.0,30.33,WNW,299,0.0,0.0,63,0.00,,,0.00,vanprod-2.3,2013-10-14 05:36:00,
2013-10-14 00:41:00,46.9,34.6,30.33,WNW,299,0.0,0.0,62,0.00,,,0.00,vanprod-2.3,2013-10-14 05:41:00,
2013-10-14 00:46:00,46.9,34.6,30.33,WNW,299,0.0,0.0,62,0.00,,,0.00,vanprod-2.3,2013-10-14 05:46:00,
2013-10-14 00:51:00,46.8,34.9,30.33,WNW,299,0.0,0.0,63,0.00,,,0.00,vanprod-2.3,2013-10-14 05:51:00,
2013-10-14 00:56:00,46.8,34.9,30.33,WNW,299,0.0,0.0,63,0.00,,,0.00,vanprod-2.3,2013-10-14 05:56:00,
2013-10-14 01:01:00,46.6,35.1,30.33,WNW,299,0.0,0.0,64,0.00,,,0.00,vanprod-2.3,2013-10-14 06:01:00,
2013-10-14 01:06:00,46.6,35.5,30.33,WNW,299,0.0,0.0,65,0.00,,,0.00,vanprod-2.3,2013-10-14 06:06:00,
2013-10-14 01:11:00,46.5,35.0,30.33,WNW,299,0.0,0.0,64,0.00,,,0.00,vanprod-2.3,2013-10-14 06:11:00,
2013-10-14 01:16:00,46.5,35.0,30.33,WNW,299,0.0,0.0,64,0.00,,,0.00,vanprod-2.3,2013-10-14 06:16:00,
2013-10-14 01:21:00,46.3,35.2,30.33,WNW,299,0.0,0.0,65,0.00,,,0.00,vanprod-2.3,2013-10-14 06:21:00,
2013-10-14 01:26:00,46.2,35.1,30.34,WNW,299,0.0,0.0,65,0.00,,,0.00,vanprod-2.3,2013-10-14 06:26:00,
2013-10-14 01:31:00,46.2,35.1,30.34,WNW,299,0.0,0.0,65,0.00,,,0.00,vanprod-2.3,2013-10-14 06:31:00,
2013-10-14 01:36:00,45.9,35.2,30.34,WNW,299,0.0,0.0,66,0.00,,,0.00,vanprod-2.3,2013-10-14 06:36:00,
2013-10-14 01:41:00,45.7,34.6,30.34,WNW,299,0.0,0.0,65,0.00,,,0.00,vanprod-2.3,2013-10-14 06:41:00,
2013-10-14 01:46:00,45.6,34.9,30.34,WNW,299,0.0,0.0,66,0.00,,,0.00,vanprod-2.3,2013-10-14 06:46:00,
2013-10-14 01:51:00,45.5,35.2,30.34,WNW,299,0.0,0.0,67,0.00,,,0.00,vanprod-2.3,2013-10-14 06:51:00,
2013-10-14 01:56:00,45.2,34.9,30.34,WNW,299,0.0,0.0,67,0.00,,,0.00,vanprod-2.3,2013-10-14 06:56:00,
2013-10-14 02:01:00,45.0,34.7,30.33,WNW,299,0.0,0.0,67,0.00,,,0.00,vanprod-2.3,2013-10-14 07:01:00,
2013-10-14 02:06:00,45.0,34.7,30.32,WNW,299,0.0,0.0,67,0.00,,,0.00,vanprod-2.3,2013-10-14 07:06:00,
2013-10-14 02:11:00,44.9,35.0,30.32,WNW,299,0.0,0.0,68,0.00,,,0.00,vanprod-2.3,2013-10-14 07:11:00,
2013-10-14 02:16:00,44.9,35.4,30.32,WNW,299,0.0,0.0,69,0.00,,,0.00,vanprod-2.3,2013-10-14 07:16:00,
2013-10-14 02:21:00,45.0,35.1,30.32,WNW,299,0.0,0.0,68,0.00,,,0.00,vanprod-2.3,2013-10-14 07:21:00,
2013-10-14 02:26:00,45.0,35.1,30.31,WNW,299,0.0,0.0,68,0.00,,,0.00,vanprod-2.3,2013-10-14 07:26:00,
2013-10-14 02:31:00,45.0,35.1,30.32,WNW,299,0.0,1.0,68,0.00,,,0.00,vanprod-2.3,2013-10-14 07:31:00,
2013-10-14 02:36:00,45.2,35.3,30.32,WNW,299,0.0,0.0,68,0.00,,,0.00,vanprod-2.3,2013-10-14 07:36:00,
2013-10-14 02:41:00,45.3,35.0,30.32,WNW,299,0.0,0.0,67,0.00,,,0.00,vanprod-2.3,2013-10-14 07:41:00,
2013-10-14 02:46:00,45.5,35.6,30.31,WNW,299,0.0,0.0,68,0.00,,,0.00,vanprod-2.3,2013-10-14 07:46:00,
2013-10-14 02:51:00,45.6,35.3,30.32,WNW,299,0.0,0.0,67,0.00,,,0.00,vanprod-2.3,2013-10-14 07:51:00,
2013-10-14 02:56:00,45.7,35.4,30.32,WNW,299,0.0,0.0,67,0.00,,,0.00,vanprod-2.3,2013-10-14 07:56:00,
2013-10-14 03:01:00,45.9,35.6,30.32,WNW,299,0.0,0.0,67,0.00,,,0.00,vanprod-2.3,2013-10-14 08:01:00,
2013-10-14 03:06:00,45.9,35.6,30.32,WNW,299,0.0,0.0,67,0.00,,,0.00,vanprod-2.3,2013-10-14 08:06:00,
2013-10-14 03:11:00,45.9,35.6,30.31,WNW,299,0.0,0.0,67,0.00,,,0.00,vanprod-2.3,2013-10-14 08:11:00,
2013-10-14 03:16:00,45.9,35.9,30.31,WNW,299,0.0,0.0,68,0.00,,,0.00,vanprod-2.3,2013-10-14 08:16:00,
2013-10-14 03:21:00,45.9,35.6,30.32,WNW,299,0.0,0.0,67,0.00,,,0.00,vanprod-2.3,2013-10-14 08:21:00,
2013-10-14 03:26:00,46.0,36.0,30.31,WNW,299,0.0,0.0,68,0.00,,,0.00,vanprod-2.3,2013-10-14 08:26:00,
2013-10-14 03:31:00,45.9,35.9,30.31,WNW,299,0.0,0.0,68,0.00,,,0.00,vanprod-2.3,2013-10-14 08:31:00,
2013-10-14 03:36:00,46.0,35.7,30.31,WNW,299,0.0,0.0,67,0.00,,,0.00,vanprod-2.3,2013-10-14 08:36:00,
2013-10-14 03:41:00,46.0,35.7,30.31,WNW,299,0.0,0.0,67,0.00,,,0.00,vanprod-2.3,2013-10-14 08:41:00,
2013-10-14 03:46:00,45.9,35.9,30.31,WNW,299,0.0,0.0,68,0.00,,,0.00,vanprod-2.3,2013-10-14 08:46:00,
2013-10-14 03:51:00,45.9,35.9,30.32,WNW,299,0.0,0.0,68,0.00,,,0.00,vanprod-2.3,2013-10-14 08:51:00,
2013-10-14 03:56:00,45.9,35.9,30.31,WNW,299,0.0,0.0,68,0.00,,,0.00,vanprod-2.3,2013-10-14 08:56:00,
2013-10-14 04:01:00,45.9,35.9,30.31,WNW,299,0.0,0.0,68,0.00,,,0.00,vanprod-2.3,2013-10-14 09:01:00,
2013-10-14 04:06:00,45.9,35.9,30.31,WNW,299,0.0,0.0,68,0.00,,,0.00,vanprod-2.3,2013-10-14 09:06:00,
2013-10-14 04:11:00,45.9,35.9,30.31,WNW,299,0.0,0.0,68,0.00,,,0.00,vanprod-2.3,2013-10-14 09:11:00,
2013-10-14 04:16:00,45.9,35.6,30.31,WNW,299,0.0,0.0,67,0.00,,,0.00,vanprod-2.3,2013-10-14 09:16:00,
2013-10-14 04:21:00,45.9,35.9,30.31,WNW,299,0.0,0.0,68,0.00,,,0.00,vanprod-2.3,2013-10-14 09:21:00,
2013-10-14 04:26:00,45.9,35.9,30.31,WNW,299,0.0,0.0,68,0.00,,,0.00,vanprod-2.3,2013-10-14 09:26:00,
2013-10-14 04:31:00,45.9,35.9,30.31,WNW,299,0.0,0.0,68,0.00,,,0.00,vanprod-2.3,2013-10-14 09:31:00,
2013-10-14 04:36:00,45.9,35.9,30.30,WNW,299,0.0,0.0,68,0.00,,,0.00,vanprod-2.3,2013-10-14 09:36:00,
2013-10-14 04:41:00,45.9,35.9,30.30,WNW,299,0.0,0.0,68,0.00,,,0.00,vanprod-2.3,2013-10-14 09:41:00,
2013-10-14 04:46:00,45.9,35.9,30.30,WNW,299,0.0,0.0,68,0.00,,,0.00,vanprod-2.3,2013-10-14 09:46:00,
2013-10-14 04:51:00,45.9,35.9,30.29,WNW,299,0.0,0.0,68,0.00,,,0.00,vanprod-2.3,2013-10-14 09:51:00,
2013-10-14 04:56:00,45.9,35.9,30.29,WNW,299,0.0,1.0,68,0.00,,,0.00,vanprod-2.3,2013-10-14 09:56:00,
2013-10-14 05:01:00,45.9,35.6,30.29,WNW,299,0.0,0.0,67,0.00,,,0.00,vanprod-2.3,2013-10-14 10:01:00,
2013-10-14 05:06:00,45.9,35.6,30.28,WNW,299,0.0,0.0,67,0.00,,,0.00,vanprod-2.3,2013-10-14 10:06:00,
2013-10-14 05:11:00,45.9,35.6,30.28,WNW,299,0.0,0.0,67,0.00,,,0.00,vanprod-2.3,2013-10-14 10:11:00,
2013-10-14 05:16:00,46.0,35.7,30.28,WNW,299,0.0,0.0,67,0.00,,,0.00,vanprod-2.3,2013-10-14 10:16:00,
2013-10-14 05:21:00,46.0,35.7,30.27,WNW,299,0.0,0.0,67,0.00,,,0.00,vanprod-2.3,2013-10-14 10:21:00,
2013-10-14 05:26:00,46.0,35.7,30.27,WNW,299,0.0,0.0,67,0.00,,,0.00,vanprod-2.3,2013-10-14 10:26:00,
2013-10-14 05:31:00,46.0,35.7,30.27,WNW,299,0.0,1.0,67,0.00,,,0.00,vanprod-2.3,2013-10-14 10:31:00,
2013-10-14 05:36:00,46.2,35.9,30.27,WNW,299,0.0,0.0,67,0.00,,,0.00,vanprod-2.3,2013-10-14 10:36:00,
2013-10-14 05:41:00,46.2,35.5,30.27,WNW,299,0.0,1.0,66,0.00,,,0.00,vanprod-2.3,2013-10-14 10:41:00,
2013-10-14 05:46:00,46.3,35.6,30.27,WNW,299,0.0,0.0,66,0.00,,,0.00,vanprod-2.3,2013-10-14 10:46:00,
2013-10-14 05:51:00,46.3,35.6,30.27,WNW,299,0.0,0.0,66,0.00,,,0.00,vanprod-2.3,2013-10-14 10:51:00,
2013-10-14 05:56:00,46.5,35.8,30.28,WNW,299,0.0,0.0,66,0.00,,,0.00,vanprod-2.3,2013-10-14 10:56:00,
2013-10-14 06:01:00,46.5,35.8,30.27,WNW,299,0.0,0.0,66,0.00,,,0.00,vanprod-2.3,2013-10-14 11:01:00,
2013-10-14 06:06:00,46.5,35.4,30.27,WNW,299,0.0,1.0,65,0.00,,,0.00,vanprod-2.3,2013-10-14 11:06:00,
2013-10-14 06:11:00,46.5,35.4,30.27,WNW,299,1.0,0.0,65,0.00,,,0.00,vanprod-2.3,2013-10-14 11:11:00,
2013-10-14 06:16:00,46.5,35.4,30.27,WNW,299,1.0,1.0,65,0.00,,,0.00,vanprod-2.3,2013-10-14 11:16:00,
2013-10-14 06:21:00,46.5,35.4,30.27,WNW,299,0.0,1.0,65,0.00,,,0.00,vanprod-2.3,2013-10-14 11:21:00,
2013-10-14 06:26:00,46.5,35.4,30.27,WNW,299,0.0,0.0,65,0.00,,,0.00,vanprod-2.3,2013-10-14 11:26:00,
2013-10-14 06:31:00,46.5,35.4,30.27,WNW,299,0.0,1.0,65,0.00,,,0.00,vanprod-2.3,2013-10-14 11:31:00,
2013-10-14 06:36:00,46.5,35.4,30.27,WNW,299,0.0,0.0,65,0.00,,,0.00,vanprod-2.3,2013-10-14 11:36:00,
2013-10-14 06:41:00,46.5,35.4,30.27,WNW,299,1.0,0.0,65,0.00,,,0.00,vanprod-2.3,2013-10-14 11:41:00,
2013-10-14 06:46:00,46.5,35.4,30.28,WNW,299,0.0,0.0,65,0.00,,,0.00,vanprod-2.3,2013-10-14 11:46:00,
2013-10-14 06:51:00,46.5,35.8,30.28,WNW,299,0.0,1.0,66,0.00,,,0.00,vanprod-2.3,2013-10-14 11:51:00,
2013-10-14 06:56:00,46.5,35.8,30.28,WNW,299,0.0,0.0,66,0.00,,,0.00,vanprod-2.3,2013-10-14 11:56:00,
2013-10-14 07:01:00,46.5,35.8,30.28,WNW,299,0.0,0.0,66,0.00,,,0.00,vanprod-2.3,2013-10-14 12:01:00,
2013-10-14 07:06:00,46.5,35.8,30.28,WNW,299,0.0,0.0,66,0.00,,,0.00,vanprod-2.3,2013-10-14 12:06:00,
2013-10-14 07:11:00,46.5,35.8,30.28,WNW,299,0.0,0.0,66,0.00,,,0.00,vanprod-2.3,2013-10-14 12:11:00,
2013-10-14 07:16:00,46.5,35.8,30.27,WNW,299,0.0,0.0,66,0.00,,,0.00,vanprod-2.3,2013-10-14 12:16:00,
2013-10-14 07:21:00,46.3,36.0,30.27,WNW,299,0.0,0.0,67,0.00,,,0.00,vanprod-2.3,2013-10-14 12:21:00,
2013-10-14 07:26:00,46.3,36.3,30.27,WNW,299,0.0,0.0,68,0.00,,,0.00,vanprod-2.3,2013-10-14 12:26:00,
2013-10-14 07:31:00,46.3,36.7,30.27,WNW,299,0.0,0.0,69,0.00,,,0.00,vanprod-2.3,2013-10-14 12:31:00,
2013-10-14 07:36:00,46.2,37.0,30.27,WNW,296,1.0,0.0,70,0.00,,,0.00,vanprod-2.3,2013-10-14 12:36:00,
2013-10-14 07:41:00,45.9,37.4,30.27,WNW,296,0.0,1.0,72,0.00,,,0.00,vanprod-2.3,2013-10-14 12:41:00,
2013-10-14 07:46:00,45.6,37.8,30.27,WNW,296,0.0,0.0,74,0.00,,,0.00,vanprod-2.3,2013-10-14 12:46:00,
2013-10-14 07:51:00,45.3,38.2,30.28,WSW,253,0.0,0.0,76,0.01,,,0.01,vanprod-2.3,2013-10-14 12:51:00,
2013-10-14 07:56:00,44.9,38.8,30.28,WSW,253,0.0,0.0,79,0.02,,,0.02,vanprod-2.3,2013-10-14 12:56:00,
2013-10-14 08:01:00,44.6,39.1,30.28,WSW,243,0.0,0.0,81,0.02,,,0.02,vanprod-2.3,2013-10-14 13:01:00,
2013-10-14 08:06:00,44.3,39.5,30.28,WSW,243,0.0,0.0,83,0.02,,,0.02,vanprod-2.3,2013-10-14 13:06:00,
2013-10-14 08:11:00,44.0,39.8,30.28,WSW,243,0.0,0.0,85,0.03,,,0.03,vanprod-2.3,2013-10-14 13:11:00,
2013-10-14 08:16:00,43.7,39.8,30.28,WSW,243,0.0,0.0,86,0.03,,,0.03,vanprod-2.3,2013-10-14 13:16:00,
2013-10-14 08:21:00,43.4,39.8,30.28,WSW,243,0.0,0.0,87,0.04,,,0.04,vanprod-2.3,2013-10-14 13:21:00,
2013-10-14 08:26:00,43.3,40.0,30.28,WSW,243,0.0,0.0,88,0.04,,,0.04,vanprod-2.3,2013-10-14 13:26:00,
2013-10-14 08:31:00,43.1,40.1,30.28,WSW,243,0.0,0.0,89,0.05,,,0.05,vanprod-2.3,2013-10-14 13:31:00,
2013-10-14 08:36:00,42.8,40.1,30.28,WSW,243,0.0,0.0,90,0.06,,,0.06,vanprod-2.3,2013-10-14 13:36:00,
2013-10-14 08:41:00,42.7,40.0,30.27,WSW,243,0.0,0.0,90,0.06,,,0.06,vanprod-2.3,2013-10-14 13:41:00,
2013-10-14 08:46:00,42.6,40.2,30.28,WSW,243,0.0,0.0,91,0.07,,,0.07,vanprod-2.3,2013-10-14 13:46:00,
2013-10-14 08:51:00,42.6,40.2,30.28,WSW,243,0.0,0.0,91,0.06,,,0.07,vanprod-2.3,2013-10-14 13:51:00,
2013-10-14 08:56:00,42.4,40.0,30.27,WSW,243,0.0,0.0,91,0.06,,,0.08,vanprod-2.3,2013-10-14 13:56:00,
2013-10-14 09:01:00,42.4,40.2,30.27,WSW,243,0.0,0.0,92,0.06,,,0.08,vanprod-2.3,2013-10-14 14:01:00,
2013-10-14 09:06:00,42.4,40.2,30.26,WSW,243,0.0,0.0,92,0.07,,,0.09,vanprod-2.3,2013-10-14 14:06:00,
2013-10-14 09:11:00,42.3,40.1,30.26,WSW,243,0.0,0.0,92,0.06,,,0.09,vanprod-2.3,2013-10-14 14:11:00,
2013-10-14 09:16:00,42.3,40.4,30.27,WSW,243,0.0,0.0,93,0.06,,,0.09,vanprod-2.3,2013-10-14 14:16:00,
2013-10-14 09:21:00,42.3,40.4,30.26,WSW,243,1.0,0.0,93,0.07,,,0.10,vanprod-2.3,2013-10-14 14:21:00,
2013-10-14 09:26:00,42.3,40.4,30.26,WSW,243,0.0,0.0,93,0.06,,,0.10,vanprod-2.3,2013-10-14 14:26:00,
2013-10-14 09:31:00,42.3,40.4,30.26,WSW,243,0.0,0.0,93,0.05,,,0.10,vanprod-2.3,2013-10-14 14:31:00,
2013-10-14 09:36:00,42.3,40.4,30.26,WSW,243,0.0,0.0,93,0.04,,,0.10,vanprod-2.3,2013-10-14 14:36:00,
2013-10-14 09:41:00,42.4,40.5,30.25,WSW,243,0.0,0.0,93,0.04,,,0.10,vanprod-2.3,2013-10-14 14:41:00,
2013-10-14 09:46:00,42.4,40.8,30.24,WSW,243,0.0,0.0,94,0.05,,,0.11,vanprod-2.3,2013-10-14 14:46:00,
2013-10-14 09:51:00,42.6,41.0,30.21,WSW,243,1.0,1.0,94,0.04,,,0.11,vanprod-2.3,2013-10-14 14:51:00,
2013-10-14 09:56:00,42.6,41.0,30.21,WSW,243,0.0,1.0,94,0.03,,,0.11,vanprod-2.3,2013-10-14 14:56:00,
2013-10-14 10:01:00,42.6,41.0,30.22,WSW,243,1.0,0.0,94,0.03,,,0.11,vanprod-2.3,2013-10-14 15:01:00,
2013-10-14 10:06:00,42.7,41.1,30.21,WSW,243,0.0,0.0,94,0.04,,,0.12,vanprod-2.3,2013-10-14 15:06:00,
2013-10-14 10:11:00,42.7,41.1,30.21,WSW,243,0.0,0.0,94,0.03,,,0.12,vanprod-2.3,2013-10-14 15:11:00,
2013-10-14 10:16:00,42.8,41.2,30.22,WSW,243,1.0,1.0,94,0.03,,,0.12,vanprod-2.3,2013-10-14 15:16:00,
2013-10-14 10:21:00,43.0,41.4,30.22,WSW,243,0.0,0.0,94,0.02,,,0.12,vanprod-2.3,2013-10-14 15:21:00,
2013-10-14 10:26:00,43.1,41.5,30.21,WSW,243,1.0,1.0,94,0.02,,,0.12,vanprod-2.3,2013-10-14 15:26:00,
2013-10-14 10:31:00,43.3,41.7,30.21,WSW,243,1.0,0.0,94,0.02,,,0.12,vanprod-2.3,2013-10-14 15:31:00,
2013-10-14 10:36:00,43.4,41.5,30.21,WSW,243,0.0,0.0,93,0.02,,,0.12,vanprod-2.3,2013-10-14 15:36:00,
2013-10-14 10:41:00,43.4,41.5,30.21,WSW,243,0.0,0.0,93,0.03,,,0.13,vanprod-2.3,2013-10-14 15:41:00,
2013-10-14 10:46:00,43.6,41.7,30.21,WSW,243,0.0,3.0,93,0.02,,,0.13,vanprod-2.3,2013-10-14 15:46:00,
2013-10-14 10:51:00,43.6,41.7,30.20,WSW,243,0.0,0.0,93,0.02,,,0.13,vanprod-2.3,2013-10-14 15:51:00,
2013-10-14 10:56:00,43.7,41.5,30.19,WSW,243,1.0,0.0,92,0.02,,,0.13,vanprod-2.3,2013-10-14 15:56:00,
2013-10-14 11:01:00,43.8,41.6,30.18,WSW,243,1.0,2.0,92,0.02,,,0.13,vanprod-2.3,2013-10-14 16:01:00,
2013-10-14 11:06:00,44.0,41.5,30.18,WSW,238,2.0,2.0,91,0.01,,,0.13,vanprod-2.3,2013-10-14 16:06:00,
2013-10-14 11:11:00,44.1,41.6,30.17,SW,215,1.0,0.0,91,0.02,,,0.14,vanprod-2.3,2013-10-14 16:11:00,
2013-10-14 11:16:00,44.1,41.4,30.17,SW,215,0.0,0.0,90,0.02,,,0.14,vanprod-2.3,2013-10-14 16:16:00,
2013-10-14 11:21:00,44.3,41.6,30.18,SW,215,2.0,2.0,90,0.02,,,0.14,vanprod-2.3,2013-10-14 16:21:00,
2013-10-14 11:26:00,44.3,41.6,30.17,SW,215,0.0,0.0,90,0.02,,,0.14,vanprod-2.3,2013-10-14 16:26:00,
2013-10-14 11:31:00,44.4,41.4,30.17,South,191,0.0,0.0,89,0.02,,,0.14,vanprod-2.3,2013-10-14 16:31:00,
2013-10-14 11:36:00,44.4,41.4,30.18,South,191,0.0,2.0,89,0.02,,,0.14,vanprod-2.3,2013-10-14 16:36:00,
2013-10-14 11:41:00,44.4,41.1,30.17,South,189,1.0,0.0,88,0.01,,,0.14,vanprod-2.3,2013-10-14 16:41:00,
2013-10-14 11:46:00,44.6,41.3,30.16,South,189,1.0,2.0,88,0.01,,,0.14,vanprod-2.3,2013-10-14 16:46:00,
2013-10-14 11:51:00,44.6,41.6,30.15,South,189,2.0,3.0,89,0.01,,,0.14,vanprod-2.3,2013-10-14 16:51:00,
2013-10-14 11:56:00,44.7,41.4,30.15,South,189,1.0,2.0,88,0.01,,,0.14,vanprod-2.3,2013-10-14 16:56:00,
2013-10-14 12:01:00,45.0,41.4,30.15,South,188,0.0,3.0,87,0.01,,,0.14,vanprod-2.3,2013-10-14 17:01:00,
2013-10-14 12:06:00,45.2,41.6,30.15,South,188,1.0,0.0,87,0.01,,,0.14,vanprod-2.3,2013-10-14 17:06:00,
2013-10-14 12:11:00,45.3,41.4,30.15,South,188,2.0,2.0,86,0.00,,,0.14,vanprod-2.3,2013-10-14 17:11:00,
2013-10-14 12:16:00,45.6,41.4,30.15,South,188,2.0,2.0,85,0.00,,,0.14,vanprod-2.3,2013-10-14 17:16:00,
2013-10-14 12:21:00,45.7,41.2,30.14,South,188,1.0,0.0,84,0.00,,,0.14,vanprod-2.3,2013-10-14 17:21:00,
2013-10-14 12:26:00,46.0,41.1,30.14,South,188,2.0,2.0,83,0.00,,,0.14,vanprod-2.3,2013-10-14 17:26:00,
2013-10-14 12:31:00,46.2,41.3,30.14,South,188,1.0,0.0,83,0.00,,,0.14,vanprod-2.3,2013-10-14 17:31:00,
2013-10-14 12:36:00,46.6,41.4,30.13,South,188,2.0,2.0,82,0.00,,,0.14,vanprod-2.3,2013-10-14 17:36:00,
2013-10-14 12:41:00,46.8,41.6,30.12,South,188,2.0,2.0,82,0.00,,,0.14,vanprod-2.3,2013-10-14 17:41:00,
2013-10-14 12:46:00,47.1,41.3,30.12,South,188,2.0,0.0,80,0.00,,,0.14,vanprod-2.3,2013-10-14 17:46:00,
2013-10-14 12:51:00,47.4,41.2,30.12,South,188,2.0,2.0,79,0.00,,,0.14,vanprod-2.3,2013-10-14 17:51:00,
2013-10-14 12:56:00,47.7,41.8,30.11,South,188,1.0,2.0,80,0.00,,,0.14,vanprod-2.3,2013-10-14 17:56:00,
2013-10-14 13:01:00,47.8,41.0,30.11,SSE,165,3.0,4.0,77,0.00,,,0.14,vanprod-2.3,2013-10-14 18:01:00,
2013-10-14 13:06:00,48.0,41.1,30.10,SSE,155,2.0,0.0,77,0.00,,,0.14,vanprod-2.3,2013-10-14 18:06:00,
2013-10-14 13:11:00,48.0,41.1,30.10,SSE,155,1.0,0.0,77,0.00,,,0.14,vanprod-2.3,2013-10-14 18:11:00,
2013-10-14 13:16:00,47.8,41.0,30.09,SSE,155,2.0,2.0,77,0.00,,,0.14,vanprod-2.3,2013-10-14 18:16:00,
2013-10-14 13:21:00,47.7,40.9,30.10,SSE,155,1.0,2.0,77,0.00,,,0.14,vanprod-2.3,2013-10-14 18:21:00,
2013-10-14 13:26:00,47.5,41.0,30.10,SSE,155,2.0,2.0,78,0.00,,,0.14,vanprod-2.3,2013-10-14 18:26:00,
2013-10-14 13:31:00,47.4,41.2,30.09,SSE,155,2.0,2.0,79,0.00,,,0.14,vanprod-2.3,2013-10-14 18:31:00,
2013-10-14 13:36:00,47.2,41.4,30.08,SSE,160,2.0,0.0,80,0.00,,,0.14,vanprod-2.3,2013-10-14 18:36:00,
2013-10-14 13:41:00,47.1,41.6,30.08,South,169,2.0,2.0,81,0.01,,,0.15,vanprod-2.3,2013-10-14 18:41:00,
2013-10-14 13:46:00,46.9,41.7,30.09,SSE,168,2.0,2.0,82,0.01,,,0.15,vanprod-2.3,2013-10-14 18:46:00,
2013-10-14 13:51:00,46.8,41.9,30.09,South,174,1.0,0.0,83,0.01,,,0.15,vanprod-2.3,2013-10-14 18:51:00,
2013-10-14 13:56:00,46.6,41.7,30.10,South,174,2.0,3.0,83,0.01,,,0.15,vanprod-2.3,2013-10-14 18:56:00,
2013-10-14 14:01:00,46.6,41.7,30.10,South,174,2.0,0.0,83,0.01,,,0.15,vanprod-2.3,2013-10-14 19:01:00,
2013-10-14 14:06:00,46.6,41.7,30.10,South,174,2.0,2.0,83,0.01,,,0.15,vanprod-2.3,2013-10-14 19:06:00,
2013-10-14 14:11:00,46.6,41.7,30.09,South,174,1.0,1.0,83,0.01,,,0.15,vanprod-2.3,2013-10-14 19:11:00,
2013-10-14 14:16:00,46.8,41.9,30.10,South,169,2.0,2.0,83,0.01,,,0.15,vanprod-2.3,2013-10-14 19:16:00,
2013-10-14 14:21:00,46.8,42.2,30.09,South,169,1.0,0.0,84,0.02,,,0.16,vanprod-2.3,2013-10-14 19:21:00,
2013-10-14 14:26:00,46.5,42.2,30.09,South,169,2.0,2.0,85,0.03,,,0.17,vanprod-2.3,2013-10-14 19:26:00,
2013-10-14 14:31:00,46.3,42.6,30.09,South,169,0.0,0.0,87,0.03,,,0.17,vanprod-2.3,2013-10-14 19:31:00,
2013-10-14 14:36:00,46.2,42.6,30.08,South,169,2.0,2.0,87,0.03,,,0.17,vanprod-2.3,2013-10-14 19:36:00,
2013-10-14 14:41:00,45.9,42.6,30.07,South,169,2.0,2.0,88,0.03,,,0.18,vanprod-2.3,2013-10-14 19:41:00,
2013-10-14 14:46:00,45.6,42.6,30.07,South,169,1.0,0.0,89,0.05,,,0.20,vanprod-2.3,2013-10-14 19:46:00,
2013-10-14 14:51:00,45.2,42.4,30.06,South,169,2.0,0.0,90,0.06,,,0.21,vanprod-2.3,2013-10-14 19:51:00,
2013-10-14 14:56:00,45.0,42.5,30.05,South,169,1.0,2.0,91,0.07,,,0.22,vanprod-2.3,2013-10-14 19:56:00,
2013-10-14 15:01:00,44.9,42.4,30.05,South,171,2.0,2.0,91,0.07,,,0.22,vanprod-2.3,2013-10-14 20:01:00,
2013-10-14 15:06:00,44.9,42.4,30.05,South,171,1.0,1.0,91,0.08,,,0.23,vanprod-2.3,2013-10-14 20:06:00,
2013-10-14 15:11:00,44.9,42.7,30.06,South,171,1.0,1.0,92,0.09,,,0.24,vanprod-2.3,2013-10-14 20:11:00,
2013-10-14 15:16:00,44.9,42.7,30.06,South,171,0.0,0.0,92,0.09,,,0.24,vanprod-2.3,2013-10-14 20:16:00,
2013-10-14 15:21:00,44.9,42.7,30.06,South,170,1.0,1.0,92,0.08,,,0.24,vanprod-2.3,2013-10-14 20:21:00,
2013-10-14 15:26:00,44.7,42.5,30.06,South,169,1.0,0.0,92,0.08,,,0.25,vanprod-2.3,2013-10-14 20:26:00,
2013-10-14 15:31:00,44.7,42.5,30.05,South,169,1.0,2.0,92,0.09,,,0.26,vanprod-2.3,2013-10-14 20:31:00,
2013-10-14 15:36:00,44.7,42.5,30.05,South,169,1.0,1.0,92,0.08,,,0.26,vanprod-2.3,2013-10-14 20:36:00,
2013-10-14 15:41:00,44.7,42.8,30.06,South,169,0.0,0.0,93,0.09,,,0.27,vanprod-2.3,2013-10-14 20:41:00,
2013-10-14 15:46:00,44.7,42.8,30.05,South,169,0.0,0.0,93,0.08,,,0.28,vanprod-2.3,2013-10-14 20:46:00,
2013-10-14 15:51:00,44.7,42.8,30.05,South,169,1.0,0.0,93,0.09,,,0.30,vanprod-2.3,2013-10-14 20:51:00,
2013-10-14 15:56:00,44.7,42.8,30.06,South,169,0.0,0.0,93,0.11,,,0.33,vanprod-2.3,2013-10-14 20:56:00,
2013-10-14 16:01:00,44.7,43.1,30.06,South,169,0.0,0.0,94,0.12,,,0.34,vanprod-2.3,2013-10-14 21:01:00,
2013-10-14 16:02:00,44.6,43.0,30.06,South,169,0.0,0.0,94,0.13,,,0.35,vanprod-2.3,2013-10-14 21:02:00,
2013-10-14 16:07:00,44.6,43.0,30.05,South,169,1.0,1.0,94,0.14,,,0.37,vanprod-2.3,2013-10-14 21:07:00,
2013-10-14 16:12:00,44.6,43.0,30.05,South,169,1.0,0.0,94,0.14,,,0.38,vanprod-2.3,2013-10-14 21:12:00,
2013-10-14 16:17:00,44.6,43.0,30.05,South,169,1.0,2.0,94,0.15,,,0.39,vanprod-2.3,2013-10-14 21:17:00,
2013-10-14 16:22:00,44.4,42.8,30.05,South,169,0.0,0.0,94,0.15,,,0.40,vanprod-2.3,2013-10-14 21:22:00,
2013-10-14 16:27:00,44.6,43.3,30.04,South,169,0.0,0.0,95,0.15,,,0.40,vanprod-2.3,2013-10-14 21:27:00,
2013-10-14 16:32:00,44.6,43.3,30.04,South,169,0.0,1.0,95,0.15,,,0.41,vanprod-2.3,2013-10-14 21:32:00,
2013-10-14 16:37:00,44.6,43.3,30.03,South,169,2.0,3.0,95,0.16,,,0.42,vanprod-2.3,2013-10-14 21:37:00,
2013-10-14 16:42:00,44.6,43.3,30.02,South,169,1.0,1.0,95,0.16,,,0.43,vanprod-2.3,2013-10-14 21:42:00,
2013-10-14 16:47:00,44.6,43.3,30.01,South,169,1.0,0.0,95,0.16,,,0.45,vanprod-2.3,2013-10-14 21:47:00,
2013-10-14 16:52:00,44.6,43.3,30.01,SSE,163,3.0,5.0,95,0.16,,,0.47,vanprod-2.3,2013-10-14 21:52:00,
2013-10-14 16:57:00,44.7,43.4,30.01,SSE,152,0.0,2.0,95,0.16,,,0.49,vanprod-2.3,2013-10-14 21:57:00,
2013-10-14 17:02:00,44.7,43.4,30.00,SSE,150,2.0,2.0,95,0.16,,,0.51,vanprod-2.3,2013-10-14 22:02:00,
2013-10-14 17:07:00,44.7,43.4,30.00,SE,134,3.0,3.0,95,0.15,,,0.52,vanprod-2.3,2013-10-14 22:07:00,
2013-10-14 17:12:00,44.7,43.4,29.99,ESE,123,3.0,3.0,95,0.14,,,0.52,vanprod-2.3,2013-10-14 22:12:00,
2013-10-14 17:17:00,44.7,43.4,29.99,ESE,123,3.0,3.0,95,0.14,,,0.53,vanprod-2.3,2013-10-14 22:17:00,
2013-10-14 17:22:00,44.7,43.4,29.98,ESE,123,1.0,2.0,95,0.13,,,0.53,vanprod-2.3,2013-10-14 22:22:00,
2013-10-14 17:27:00,44.7,43.4,29.98,ESE,119,3.0,3.0,95,0.13,,,0.53,vanprod-2.3,2013-10-14 22:27:00,
2013-10-14 17:32:00,44.9,43.6,29.98,ESE,117,2.0,2.0,95,0.12,,,0.53,vanprod-2.3,2013-10-14 22:32:00,
2013-10-14 17:37:00,44.9,43.6,29.98,ESE,116,1.0,3.0,95,0.11,,,0.53,vanprod-2.3,2013-10-14 22:37:00,
2013-10-14 17:42:00,45.0,43.7,29.98,SE,141,2.0,2.0,95,0.10,,,0.54,vanprod-2.3,2013-10-14 22:42:00,
2013-10-14 17:47:00,45.2,43.6,29.98,ESE,103,2.0,2.0,94,0.09,,,0.54,vanprod-2.3,2013-10-14 22:47:00,
2013-10-14 17:52:00,45.2,43.6,29.98,ESE,103,2.0,2.0,94,0.07,,,0.54,vanprod-2.3,2013-10-14 22:52:00,
2013-10-14 17:57:00,45.2,43.3,29.98,East,100,1.0,1.0,93,0.05,,,0.54,vanprod-2.3,2013-10-14 22:57:00,
2013-10-14 18:02:00,45.3,43.4,29.96,East,97,3.0,3.0,93,0.03,,,0.54,vanprod-2.3,2013-10-14 23:02:00,
2013-10-14 18:07:00,45.3,43.4,29.96,East,95,2.0,4.0,93,0.03,,,0.55,vanprod-2.3,2013-10-14 23:07:00,
2013-10-14 18:12:00,45.3,43.4,29.97,East,95,1.0,2.0,93,0.05,,,0.57,vanprod-2.3,2013-10-14 23:12:00,
2013-10-14 18:17:00,45.3,43.7,29.96,East,95,1.0,2.0,94,0.05,,,0.58,vanprod-2.3,2013-10-14 23:17:00,
2013-10-14 18:22:00,45.2,43.6,29.96,ENE,73,4.0,4.0,94,0.07,,,0.60,vanprod-2.3,2013-10-14 23:22:00,
2013-10-14 18:27:00,45.2,43.6,29.95,ENE,59,3.0,3.0,94,0.08,,,0.61,vanprod-2.3,2013-10-14 23:27:00,
2013-10-14 18:32:00,45.2,43.6,29.95,ENE,62,2.0,4.0,94,0.09,,,0.62,vanprod-2.3,2013-10-14 23:32:00,
2013-10-14 18:37:00,45.2,43.6,29.95,ENE,66,1.0,2.0,94,0.11,,,0.64,vanprod-2.3,2013-10-14 23:37:00,
2013-10-14 18:42:00,45.2,43.9,29.95,ENE,64,4.0,6.0,95,0.12,,,0.66,vanprod-2.3,2013-10-14 23:42:00,
2013-10-14 18:47:00,45.2,43.6,29.95,ENE,75,3.0,5.0,94,0.14,,,0.68,vanprod-2.3,2013-10-14 23:47:00,
2013-10-14 18:52:00,45.2,43.9,29.95,ENE,75,2.0,5.0,95,0.14,,,0.68,vanprod-2.3,2013-10-14 23:52:00,
2013-10-14 18:57:00,45.2,43.9,29.95,ENE,71,3.0,3.0,95,0.15,,,0.69,vanprod-2.3,2013-10-14 23:57:00,
2013-10-14 19:02:00,45.2,43.9,29.95,ENE,71,1.0,2.0,95,0.15,,,0.69,vanprod-2.3,2013-10-15 00:02:00,
2013-10-14 19:07:00,45.0,43.7,29.95,ENE,72,2.0,2.0,95,0.15,,,0.70,vanprod-2.3,2013-10-15 00:07:00,
2013-10-14 19:12:00,45.0,43.7,29.95,ENE,72,1.0,3.0,95,0.14,,,0.71,vanprod-2.3,2013-10-15 00:12:00,
2013-10-14 19:17:00,45.0,43.7,29.95,ENE,75,1.0,0.0,95,0.13,,,0.72,vanprod-2.3,2013-10-15 00:17:00,
2013-10-14 19:22:00,44.9,43.6,29.95,ENE,76,3.0,4.0,95,0.14,,,0.74,vanprod-2.3,2013-10-15 00:22:00,
2013-10-14 19:27:00,44.9,43.6,29.94,ENE,78,1.0,1.0,95,0.14,,,0.75,vanprod-2.3,2013-10-15 00:27:00,
2013-10-14 19:32:00,44.9,43.6,29.93,ENE,77,3.0,5.0,95,0.15,,,0.77,vanprod-2.3,2013-10-15 00:32:00,
2013-10-14 19:37:00,44.9,43.6,29.93,East,80,4.0,4.0,95,0.15,,,0.79,vanprod-2.3,2013-10-15 00:37:00,
2013-10-14 19:42:00,44.9,43.6,29.93,ENE,74,3.0,7.0,95,0.14,,,0.80,vanprod-2.3,2013-10-15 00:42:00,
2013-10-14 19:47:00,44.9,43.6,29.92,ENE,69,4.0,4.0,95,0.13,,,0.81,vanprod-2.3,2013-10-15 00:47:00,
2013-10-14 19:52:00,44.7,43.4,29.92,ENE,72,4.0,4.0,95,0.15,,,0.83,vanprod-2.3,2013-10-15 00:52:00,
2013-10-14 19:57:00,44.7,43.4,29.92,ESE,103,3.0,3.0,95,0.14,,,0.83,vanprod-2.3,2013-10-15 00:57:00,
2013-10-14 20:02:00,44.9,43.6,29.92,East,93,4.0,6.0,95,0.14,,,0.83,vanprod-2.3,2013-10-15 01:02:00,
2013-10-14 20:07:00,44.9,43.6,29.91,East,89,3.0,4.0,95,0.14,,,0.84,vanprod-2.3,2013-10-15 01:07:00,
2013-10-14 20:12:00,44.9,43.6,29.91,East,92,2.0,2.0,95,0.13,,,0.84,vanprod-2.3,2013-10-15 01:12:00,
2013-10-14 20:17:00,45.0,43.7,29.91,East,80,3.0,3.0,95,0.12,,,0.84,vanprod-2.3,2013-10-15 01:17:00,
2013-10-14 20:22:00,45.0,43.7,29.90,East,81,4.0,4.0,95,0.10,,,0.84,vanprod-2.3,2013-10-15 01:22:00,
2013-10-14 20:27:00,45.0,43.7,29.89,East,82,2.0,5.0,95,0.09,,,0.84,vanprod-2.3,2013-10-15 01:27:00,
2013-10-14 20:32:00,45.2,43.9,29.89,East,84,3.0,3.0,95,0.08,,,0.85,vanprod-2.3,2013-10-15 01:32:00,
2013-10-14 20:37:00,45.2,43.9,29.88,East,79,5.0,7.0,95,0.06,,,0.85,vanprod-2.3,2013-10-15 01:37:00,
2013-10-14 20:42:00,45.2,43.9,29.87,East,79,3.0,5.0,95,0.06,,,0.86,vanprod-2.3,2013-10-15 01:42:00,
2013-10-14 20:47:00,45.2,43.9,29.87,East,84,4.0,7.0,95,0.04,,,0.86,vanprod-2.3,2013-10-15 01:47:00,
2013-10-14 20:52:00,45.2,43.9,29.86,ESE,108,4.0,9.0,95,0.03,,,0.86,vanprod-2.3,2013-10-15 01:52:00,
2013-10-14 20:57:00,45.3,44.0,29.86,East,95,4.0,5.0,95,0.03,,,0.86,vanprod-2.3,2013-10-15 01:57:00,
2013-10-14 21:02:00,45.3,44.0,29.86,East,97,2.0,2.0,95,0.03,,,0.86,vanprod-2.3,2013-10-15 02:02:00,
2013-10-14 21:07:00,45.5,44.2,29.86,SE,128,4.0,5.0,95,0.02,,,0.86,vanprod-2.3,2013-10-15 02:07:00,
2013-10-14 21:12:00,45.6,44.3,29.88,SE,140,2.0,2.0,95,0.02,,,0.86,vanprod-2.3,2013-10-15 02:12:00,
2013-10-14 21:17:00,45.7,44.4,29.89,ESE,103,3.0,4.0,95,0.03,,,0.87,vanprod-2.3,2013-10-15 02:17:00,
2013-10-14 21:22:00,45.7,44.4,29.88,East,89,2.0,2.0,95,0.03,,,0.87,vanprod-2.3,2013-10-15 02:22:00,
2013-10-14 21:27:00,45.9,44.8,29.86,East,92,2.0,6.0,96,0.03,,,0.87,vanprod-2.3,2013-10-15 02:27:00,
2013-10-14 21:32:00,46.0,44.7,29.84,East,94,3.0,4.0,95,0.02,,,0.87,vanprod-2.3,2013-10-15 02:32:00,
2013-10-14 21:37:00,46.2,44.9,29.84,East,96,3.0,3.0,95,0.02,,,0.87,vanprod-2.3,2013-10-15 02:37:00,
2013-10-14 21:42:00,46.2,44.9,29.86,East,97,2.0,3.0,95,0.01,,,0.87,vanprod-2.3,2013-10-15 02:42:00,
2013-10-14 21:47:00,46.2,44.9,29.86,WNW,285,3.0,3.0,95,0.01,,,0.87,vanprod-2.3,2013-10-15 02:47:00,
2013-10-14 21:52:00,46.5,45.1,29.86,ESE,102,4.0,4.0,95,0.01,,,0.87,vanprod-2.3,2013-10-15 02:52:00,
2013-10-14 21:57:00,46.6,45.2,29.85,East,96,3.0,3.0,95,0.01,,,0.87,vanprod-2.3,2013-10-15 02:57:00,
2013-10-14 22:02:00,46.8,45.2,29.84,ESE,114,2.0,2.0,94,0.01,,,0.87,vanprod-2.3,2013-10-15 03:02:00,
2013-10-14 22:07:00,46.9,45.3,29.84,East,99,3.0,5.0,94,0.01,,,0.87,vanprod-2.3,2013-10-15 03:07:00,
2013-10-14 22:12:00,46.9,45.3,29.85,ESE,113,4.0,4.0,94,0.01,,,0.87,vanprod-2.3,2013-10-15 03:12:00,
2013-10-14 22:17:00,47.1,45.2,29.84,East,80,2.0,2.0,93,0.00,,,0.87,vanprod-2.3,2013-10-15 03:17:00,
2013-10-14 22:22:00,47.1,45.2,29.84,ESE,102,3.0,3.0,93,0.00,,,0.87,vanprod-2.3,2013-10-15 03:22:00,
2013-10-14 22:27:00,47.2,45.3,29.84,East,87,3.0,6.0,93,0.00,,,0.87,vanprod-2.3,2013-10-15 03:27:00,
2013-10-14 22:32:00,47.5,45.3,29.84,ESE,117,4.0,4.0,92,0.00,,,0.87,vanprod-2.3,2013-10-15 03:32:00,
2013-10-14 22:37:00,47.5,45.3,29.82,ESE,117,2.0,3.0,92,0.00,,,0.87,vanprod-2.3,2013-10-15 03:37:00,
2013-10-14 22:42:00,47.5,45.3,29.82,ESE,119,2.0,4.0,92,0.00,,,0.87,vanprod-2.3,2013-10-15 03:42:00,
2013-10-14 22:47:00,47.7,45.2,29.82,ENE,62,3.0,3.0,91,0.00,,,0.87,vanprod-2.3,2013-10-15 03:47:00,
2013-10-14 22:52:00,47.8,45.3,29.82,East,94,4.0,6.0,91,0.00,,,0.87,vanprod-2.3,2013-10-15 03:52:00,
2013-10-14 22:57:00,47.8,45.3,29.82,ENE,78,4.0,4.0,91,0.00,,,0.87,vanprod-2.3,2013-10-15 03:57:00,
2013-10-14 23:01:00,47.7,45.2,29.82,West,280,2.0,3.0,91,0.00,,,0.87,vanprod-2.3,2013-10-15 04:01:00,
2013-10-14 23:06:00,47.8,45.3,29.83,ENE,73,3.0,5.0,91,0.00,,,0.87,vanprod-2.3,2013-10-15 04:06:00,
2013-10-14 23:11:00,48.0,45.5,29.82,East,85,2.0,2.0,91,0.00,,,0.87,vanprod-2.3,2013-10-15 04:11:00,
2013-10-14 23:16:00,48.0,45.5,29.82,SE,126,3.0,11.0,91,0.00,,,0.87,vanprod-2.3,2013-10-15 04:16:00,
2013-10-14 23:21:00,48.1,45.6,29.81,ENE,77,3.0,8.0,91,0.00,,,0.87,vanprod-2.3,2013-10-15 04:21:00,
2013-10-14 23:26:00,48.0,45.5,29.81,ESE,104,3.0,3.0,91,0.00,,,0.87,vanprod-2.3,2013-10-15 04:26:00,
2013-10-14 23:31:00,48.0,45.5,29.81,ESE,102,2.0,3.0,91,0.00,,,0.87,vanprod-2.3,2013-10-15 04:31:00,
2013-10-14 23:36:00,48.0,45.5,29.81,ESE,111,2.0,2.0,91,0.00,,,0.87,vanprod-2.3,2013-10-15 04:36:00,
2013-10-14 23:41:00,48.0,45.5,29.81,ESE,113,3.0,3.0,91,0.00,,,0.87,vanprod-2.3,2013-10-15 04:41:00,
2013-10-14 23:46:00,48.0,45.5,29.79,ESE,111,3.0,6.0,91,0.00,,,0.87,vanprod-2.3,2013-10-15 04:46:00,
2013-10-14 23:51:00,48.1,45.9,29.81,ESE,107,2.0,6.0,92,0.00,,,0.87,vanprod-2.3,2013-10-15 04:51:00,
2013-10-14 23:56:00,48.1,45.9,29.79,ESE,107,1.0,3.0,92,0.00,,,0.87,vanprod-2.3,2013-10-15 04:56:00,